sat.trackr.live / text

‹ back to catalog

STARLINK-35998

NORAD 68055 · 2026-041R

PAYLOAD ACTIVE UNKNOWN

§ Identity

Operator
Country
US
Launch date
2026-03-02
Launch site
AFETR
Launch vehicle
Mass (kg)
RCS (m²)

Purposes: comms

External: N2YO · Heavens-Above · Gunter

§ Orbital elements

Epoch: 2026-09-19T22:09:17.637120Z

Period
93.85 min
Inclination
53.1577°
Eccentricity
0.0001308
Mean motion
15.34404779 rev/d
Perigee alt
461.8 km
Apogee alt
463.6 km
Semi-major
6,840.8 km
B*
5.2543e-4
RAAN
224.3226°
Arg perigee
100.8642°
Mean anomaly
259.2508°
Rev number
3,117

§ Raw data

STARLINK-359981 68055U 26041R   26262.92312080  .00017420  00000+0  52543-3 0  99952 68055  53.1577 224.3226 0001308 100.8642 259.2508 15.34404779 31175

JSON: /api/v1/satellites/68055 · /tle

For live sub-satellite position, see the globe view (requires WebGL).

§ Visibility from observer

Set your observer location to see the next 7 days of passes ≥ 10°. The values pass through the URL so the page stays shareable.

No JS? Fill the form by hand. The geolocation button needs JavaScript.